TimeEDT,TemperatureF,Dew PointF,Humidity,Sea Level PressureIn,VisibilityMPH,Wind Direction,Wind SpeedMPH,Gust SpeedMPH,PrecipitationIn,Events,Conditions,WindDirDegrees,DateUTC
12:54 AM,34.0,30.0,85,30.55,10.0,Calm,Calm,-,N/A,,Clear,0,2008-10-31 04:54:00
1:54 AM,32.0,30.0,92,30.55,10.0,Calm,Calm,-,N/A,,Clear,0,2008-10-31 05:54:00
2:54 AM,32.0,30.0,92,30.55,10.0,Calm,Calm,-,N/A,,Clear,0,2008-10-31 06:54:00
3:54 AM,30.9,28.9,92,30.56,10.0,Calm,Calm,-,N/A,,Clear,0,2008-10-31 07:54:00
4:54 AM,30.0,28.0,92,30.57,10.0,Calm,Calm,-,N/A,,Clear,0,2008-10-31 08:54:00
5:54 AM,28.0,27.0,96,30.59,10.0,Calm,Calm,-,N/A,,Clear,0,2008-10-31 09:54:00
6:54 AM,28.0,26.1,92,30.61,10.0,Calm,Calm,-,N/A,,Clear,0,2008-10-31 10:54:00
7:54 AM,28.0,26.1,92,30.62,10.0,Calm,Calm,-,N/A,,Clear,0,2008-10-31 11:54:00
8:54 AM,32.0,28.9,88,30.63,10.0,Calm,Calm,-,N/A,,Clear,0,2008-10-31 12:54:00
9:54 AM,39.9,33.1,77,30.63,10.0,NW,4.6,-,N/A,,Clear,320,2008-10-31 13:54:00
10:54 AM,48.9,30.9,50,30.61,10.0,NNW,6.9,-,N/A,,Clear,340,2008-10-31 14:54:00
11:54 AM,57.0,30.9,37,30.58,10.0,NNW,10.4,-,N/A,,Clear,340,2008-10-31 15:54:00
12:54 PM,61.0,30.0,31,30.55,10.0,NNW,10.4,-,N/A,,Clear,340,2008-10-31 16:54:00
1:54 PM,64.0,27.0,25,30.51,10.0,NNW,10.4,16.1,N/A,,Clear,340,2008-10-31 17:54:00
2:54 PM,66.0,25.0,21,30.48,10.0,NW,9.2,-,N/A,,Clear,310,2008-10-31 18:54:00
3:54 PM,66.9,21.9,18,30.45,10.0,North,4.6,-,N/A,,Clear,350,2008-10-31 19:54:00
4:54 PM,66.0,24.1,20,30.44,10.0,NNW,6.9,-,N/A,,Clear,330,2008-10-31 20:54:00
5:54 PM,64.9,24.1,21,30.43,10.0,NW,3.5,-,N/A,,Clear,320,2008-10-31 21:54:00
6:54 PM,60.1,33.1,36,30.45,10.0,SE,3.5,-,N/A,,Clear,130,2008-10-31 22:54:00
7:54 PM,53.1,35.1,50,30.48,10.0,Calm,Calm,-,N/A,,Clear,0,2008-10-31 23:54:00
8:54 PM,48.9,34.0,56,30.48,10.0,Calm,Calm,-,N/A,,Clear,0,2008-11-01 00:54:00
9:54 PM,44.1,34.0,68,30.48,10.0,Calm,Calm,-,N/A,,Clear,0,2008-11-01 01:54:00
10:54 PM,42.1,34.0,73,30.47,10.0,Calm,Calm,-,N/A,,Clear,0,2008-11-01 02:54:00
11:54 PM,39.0,34.0,82,30.46,10.0,Calm,Calm,-,N/A,,Clear,0,2008-11-01 03:54:00